Updated 18-Jan-2024. Data version 1.1, RHmax=100,Scatmax=2500 
Year,Month,Day,Hour,Temp_degC,Pressure,%RH,Back_Scat_Red,Back_Scat_Green,Back_Scat_Blue,Total_Scat_Red,Total_Scat_Green,Total_Scat_Blue
2019, 04, 26, 08,   34.2,  95.56,     63,  114.8,   69.7,   40.5, 896.5, 609.2,  336.1
2019, 04, 26, 09,   34.9,  95.59,     62,  113.2,   68.2,   39.3, 880.5, 591.5,  322.5
2019, 05, 02, 05,   25.8,  95.17,     93,   74.0,   48.6,   36.2, 635.9, 454.3,  281.2
2019, 05, 02, 06,   26.1,  95.39,     92,   79.2,   52.7,   40.2, 661.9, 480.8,  302.1
2019, 05, 02, 07,   27.2,  95.47,     92,   79.8,   53.4,   41.0, 664.6, 474.5,  301.7
2019, 05, 02, 08,   28.9,  95.56,     91,   80.6,   54.6,   42.0, 666.8, 473.6,  299.0
2019, 11, 27, 14,   41.8,  95.27,     24,    3.4,    3.7,    4.6,  21.5,  24.7,   35.8
2019, 11, 27, 15,   41.9,  95.24,     21,    3.0,    3.2,    4.2,  18.5,  22.0,   31.8
2019, 11, 27, 16,   41.7,  95.21,     20,    2.6,    2.7,    3.7,  16.1,  18.8,   26.8
2019, 11, 27, 17,   39.5,  95.27,     29,    3.9,    4.1,    5.4,  22.4,  26.7,   39.1
2019, 11, 27, 18,   36.6,  95.36,     34,    6.0,    6.5,    8.3,  32.1,  37.4,   55.2
2019, 11, 27, 19,   34.5,  95.43,     37,    8.1,    9.1,   11.8,  42.7,  50.9,   76.4
2019, 11, 27, 20,   34.1,  95.52,     38,    7.8,    8.5,   10.9,  39.9,  47.0,   71.1
2019, 11, 27, 21,   33.8,  95.60,     39,    7.8,    8.6,   10.9,  40.2,  47.2,   71.5
2019, 11, 27, 22,   32.7,  95.62,     45,    9.7,   10.8,   13.6,  52.5,  60.7,   90.1
2019, 11, 27, 23,   31.1,  95.58,     55,   14.1,   15.8,   19.5,  82.5,  94.8,  137.7
2019, 11, 28, 00,   29.3,  95.58,     67,   16.3,   18.4,   22.8, 100.2, 115.6,  166.7
2019, 11, 28, 01,   28.4,  95.58,     74,   18.8,   21.0,   25.6, 126.2, 142.0,  200.5
2019, 11, 28, 02,   28.3,  95.54,     78,   19.6,   21.9,   26.7, 136.7, 153.1,  216.5
2019, 11, 28, 03,   27.9,  95.52,     81,   19.5,   21.8,   26.7, 138.1, 156.2,  223.5
2019, 11, 28, 04,   27.7,  95.51,     82,   20.0,   22.4,   27.5, 144.9, 164.7,  236.0
2019, 11, 28, 05,   27.4,  95.54,     83,   20.1,   22.5,   27.6, 147.3, 166.9,  238.7
2019, 11, 28, 06,   27.0,  95.57,     85,   19.6,   22.0,   27.0, 148.1, 168.1,  240.8
2019, 11, 28, 07,   28.3,  95.60,     81,   17.3,   19.2,   23.7, 126.8, 142.6,  204.1
2019, 11, 28, 08,   35.0,  95.64,     60,   15.9,   18.1,   22.1, 102.5, 118.0,  167.4
2019, 11, 28, 09,   41.5,  95.67,     44,   13.3,   15.6,   19.1,  85.3, 102.2,  146.9
2019, 11, 28, 10,   45.2,  95.66,     34,    7.6,    8.9,   11.0,  47.4,  60.5,   88.7
2019, 11, 28, 11,   46.2,  95.59,     28,    5.1,    5.9,    7.4,  32.9,  42.9,   62.2
2019, 11, 28, 12,   42.6,  95.51,     24,    3.4,    3.7,    4.8,  20.7,  25.6,   37.6
2019, 11, 28, 13,   42.2,  95.42,     20,    2.7,    2.8,    3.7,  15.9,  19.2,   27.8
2019, 11, 28, 14,   42.0,  95.40,     18,    2.3,    2.3,    3.2,  13.6,  15.9,   23.0
2019, 11, 28, 15,   42.0,  95.30,     19,    2.3,    3.7,    3.9,  19.4,  25.1,   35.7
2019, 11, 28, 16,   42.6,  95.29,     20,    2.5,    4.0,    4.2,  20.6,  26.9,   38.4
2019, 11, 28, 17,   41.7,  95.32,     23,    2.9,    4.4,    4.8,  22.1,  28.9,   41.4
2019, 11, 28, 18,   37.8,  95.39,     30,    4.7,    6.3,    7.2,  30.1,  37.8,   55.2
2019, 11, 28, 19,   34.6,  95.48,     36,    7.0,    8.9,   10.5,  41.0,  50.0,   74.1
2019, 11, 28, 20,   33.1,  95.58,     38,    7.8,    9.9,   11.6,  44.7,  53.3,   78.9
2019, 11, 28, 21,   31.9,  95.63,     42,    9.2,   11.5,   13.7,  53.6,  63.1,   93.9
2019, 11, 28, 22,   30.6,  95.64,     51,   11.4,   14.1,   17.0,  67.6,  79.8,  118.4
2019, 11, 28, 23,   28.5,  95.62,     64,   18.0,   21.7,   25.7, 115.3, 131.9,  185.5
2019, 11, 29, 00,   27.5,  95.61,     68,   20.3,   24.3,   28.9, 130.9, 149.0,  209.4
2019, 11, 29, 01,   26.7,  95.58,     69,   20.0,   24.0,   28.6, 132.4, 151.1,  213.7
2019, 11, 29, 02,   26.8,  95.54,     66,   16.2,   19.4,   23.0, 102.5, 117.8,  168.6
2019, 11, 29, 03,   27.0,  95.51,     70,   15.0,   17.9,   21.3,  93.7, 108.9,  157.3
2019, 11, 29, 04,   27.4,  95.52,     77,   17.1,   20.2,   23.8, 124.0, 140.1,  197.5
2019, 11, 29, 05,   27.5,  95.55,     84,   18.1,   21.5,   25.4, 155.5, 172.9,  239.6
2019, 11, 29, 06,   27.6,  95.62,     87,   16.6,   19.9,   23.8, 152.0, 171.1,  238.7
2019, 11, 29, 07,   28.0,  95.67,     90,   14.8,   18.2,   22.1, 146.6, 169.7,  242.7
2019, 11, 29, 08,   31.4,  95.73,     77,   13.6,   16.5,   19.6, 112.3, 131.7,  189.1
2019, 11, 29, 09,   38.6,  95.73,     52,   11.4,   14.2,   16.6,  76.9,  94.4,  137.1
2019, 11, 29, 10,   43.5,  95.71,     36,    8.6,   11.2,   13.0,  60.2,  76.3,  110.6
2019, 11, 29, 11,   45.1,  95.66,     29,    5.7,    7.9,    9.0,  42.1,  54.6,   78.3
2019, 11, 29, 12,   42.5,  95.58,     32,    5.2,    7.2,    8.1,  37.5,  47.9,   69.6
2019, 11, 29, 13,   42.1,  95.49,     27,    4.3,    6.0,    6.8,  31.1,  39.7,   57.2
2019, 11, 29, 14,   41.0,  95.43,     25,    4.1,    5.7,    6.4,  29.3,  36.7,   52.8
2019, 11, 29, 15,   41.3,  95.34,     19,    3.4,    4.2,    4.6,  23.2,  28.4,   39.9
2019, 11, 29, 16,   41.5,  95.34,     20,    3.8,    4.7,    5.3,  25.4,  31.4,   44.1
2019, 11, 29, 17,   40.5,  95.38,     23,    4.1,    5.0,    5.8,  26.0,  31.9,   45.1
2019, 11, 29, 18,   37.2,  95.45,     28,    5.5,    6.5,    7.6,  31.9,  38.1,   54.3
2019, 11, 29, 19,   34.3,  95.52,     30,    6.7,    7.7,    9.3,  37.0,  42.6,   61.1
2019, 11, 29, 20,   33.3,  95.59,     31,    7.6,    8.9,   10.7,  41.1,  47.6,   68.5
2019, 11, 29, 21,   32.8,  95.62,     30,    7.6,    8.8,   10.7,  41.1,  46.8,   67.1
2019, 11, 29, 22,   32.1,  95.62,     31,    7.4,    8.6,   10.5,  40.4,  45.2,   64.8
2019, 11, 29, 23,   30.6,  95.58,     44,   11.3,   13.2,   16.0,  64.2,  73.6,  107.0
2019, 11, 30, 00,   27.7,  95.57,     65,   15.9,   18.6,   22.4,  92.6, 108.1,  156.3
2019, 11, 30, 01,   26.8,  95.54,     68,   17.7,   20.6,   24.8, 107.9, 123.8,  177.4
2019, 11, 30, 02,   26.3,  95.52,     69,   20.7,   24.0,   28.7, 135.4, 151.9,  212.8
2019, 11, 30, 03,   26.4,  95.48,     64,   18.6,   21.7,   26.1, 113.2, 130.0,  186.3
2019, 11, 30, 04,   26.0,  95.47,     66,   22.8,   26.8,   32.4, 139.2, 160.9,  231.5
2019, 11, 30, 05,   24.8,  95.53,     74,   26.2,   30.5,   36.5, 168.2, 188.3,  264.6
2019, 11, 30, 06,   24.1,  95.55,     76,   36.5,   42.4,   50.1, 260.2, 283.8,  386.7
2019, 11, 30, 07,   25.7,  95.61,     71,   27.0,   31.6,   37.9, 173.6, 197.2,  279.9
2019, 11, 30, 08,   34.0,  95.65,     46,   21.6,   25.9,   31.0, 134.2, 156.9,  224.2
2019, 11, 30, 09,   40.4,  95.62,     26,   11.3,   13.8,   16.1,  73.6,  84.8,  115.7
2019, 11, 30, 10,   42.8,  95.57,     18,    6.8,    8.5,    9.9,  54.5,  58.1,   74.3
2019, 11, 30, 11,   40.6,  95.50,     15,    6.0,    7.0,    7.8,  49.6,  49.3,   60.0
2019, 11, 30, 12,   40.4,  95.47,     16,    5.9,    6.9,    8.0,  46.6,  47.4,   59.0
2019, 11, 30, 13,   41.2,  95.38,     16,    5.3,    6.4,    7.1,  42.5,  43.7,   54.6
2019, 11, 30, 14,   41.5,  95.32,     13,    4.0,    4.7,    5.2,  34.8,  34.7,   42.4
2019, 11, 30, 15,   41.4,  95.27,     15,    4.1,    4.8,    5.8,  35.1,  36.0,   45.7
2019, 11, 30, 16,   42.4,  95.28,     14,    4.1,    4.9,    5.8,  35.2,  36.4,   46.0
2019, 11, 30, 17,   41.6,  95.31,     17,    4.4,    5.1,    6.4,  36.0,  37.2,   48.3
2019, 11, 30, 18,   38.2,  95.38,     22,    5.7,    6.6,    8.1,  40.7,  42.5,   56.2
2019, 11, 30, 19,   34.7,  95.44,     28,    8.1,    9.4,   11.4,  51.2,  54.4,   73.6
2019, 11, 30, 20,   32.8,  95.50,     34,    9.9,   11.5,   14.2,  61.1,  65.4,   90.3
2019, 11, 30, 21,   31.8,  95.57,     39,   10.5,   12.2,   14.9,  64.2,  68.3,   94.5
2019, 11, 30, 22,   30.3,  95.58,     50,   15.6,   18.0,   21.6,  99.9, 106.8,  148.1
2019, 11, 30, 23,   28.7,  95.57,     52,   27.1,   31.8,   38.3, 168.8, 187.7,  262.7
2019, 12, 01, 00,   29.1,  95.54,     49,   17.0,   19.8,   24.2, 105.5, 114.7,  161.5
2019, 12, 01, 01,   28.5,  95.51,     51,   15.1,   17.4,   21.1,  91.4,  99.2,  140.1
2019, 12, 01, 02,   28.0,  95.49,     52,   14.6,   16.9,   20.5,  88.3,  95.3,  135.8
2019, 12, 01, 03,   28.2,  95.47,     59,   14.1,   16.2,   19.8,  85.6,  93.7,  134.6
2019, 12, 01, 04,   27.4,  95.48,     74,   19.0,   21.7,   26.2, 137.3, 152.1,  212.6
2019, 12, 01, 05,   26.9,  95.49,     91,   19.2,   22.2,   27.3, 182.1, 205.9,  289.0
2019, 12, 01, 06,   27.4,  95.53,     90,   18.7,   21.8,   26.8, 187.6, 209.4,  290.5
2019, 12, 01, 07,   28.1,  95.58,     90,   19.4,   22.8,   28.0, 215.0, 232.9,  314.6
2019, 12, 01, 08,   29.9,  95.64,     83,   18.8,   21.6,   26.1, 188.4, 203.7,  276.0
2019, 12, 01, 09,   34.9,  95.65,     65,   15.1,   17.5,   21.1, 117.8, 135.1,  188.9
2019, 12, 01, 10,   40.2,  95.59,     48,   11.7,   13.9,   16.8,  87.3, 102.8,  145.4
2019, 12, 01, 11,   43.0,  95.53,     36,    9.2,   11.2,   13.4,  69.5,  81.0,  113.6
2019, 12, 01, 12,   45.1,  95.43,     24,    7.3,    8.9,   10.5,  56.7,  64.8,   87.5
2019, 12, 01, 13,   45.5,  95.34,     21,    7.1,    8.8,   10.3,  55.4,  63.9,   85.6
2019, 12, 01, 14,   45.5,  95.27,     21,    6.9,    8.6,   10.0,  54.2,  62.7,   83.5
2019, 12, 01, 15,   45.2,  95.24,     21,    6.8,    8.5,    9.8,  53.0,  61.2,   82.2
2019, 12, 01, 16,   43.7,  95.24,     24,    6.8,    8.3,    9.6,  52.6,  59.3,   79.6
2019, 12, 01, 17,   41.0,  95.28,     29,    7.6,    9.1,   10.6,  56.1,  61.9,   82.8
2019, 12, 01, 18,   37.8,  95.36,     36,    9.7,   11.3,   13.4,  65.8,  72.1,   98.8
2019, 12, 01, 19,   35.6,  95.46,     50,   11.9,   14.2,   17.1,  75.5,  86.5,  123.9
2019, 12, 01, 20,   34.6,  95.54,     55,   15.4,   18.4,   22.3,  95.0, 111.1,  159.9
2019, 12, 01, 21,   33.7,  95.59,     59,   15.6,   18.5,   22.4,  96.0, 112.6,  160.7
2019, 12, 01, 22,   33.2,  95.62,     63,   22.7,   27.1,   32.8, 151.0, 175.6,  247.4
2019, 12, 01, 23,   32.5,  95.59,     66,   20.7,   24.3,   29.3, 139.6, 159.5,  223.9
2019, 12, 02, 00,   31.4,  95.56,     70,   15.0,   17.6,   21.2,  96.4, 112.2,  160.5
2019, 12, 02, 01,   30.8,  95.51,     74,   15.5,   18.0,   21.7, 101.5, 118.3,  170.2
2019, 12, 02, 02,   30.1,  95.48,     78,   16.2,   18.7,   22.4, 110.4, 128.4,  185.2
2019, 12, 02, 03,   29.5,  95.45,     80,   16.6,   19.1,   23.0, 118.3, 136.2,  196.9
2019, 12, 02, 04,   28.9,  95.45,     84,   15.8,   18.0,   21.8, 120.4, 139.2,  201.2
2019, 12, 02, 05,   28.6,  95.47,     86,   15.5,   18.0,   21.9, 126.5, 146.7,  211.7
2019, 12, 02, 06,   28.1,  95.52,     87,   17.3,   20.0,   24.5, 147.0, 170.9,  246.5
2019, 12, 02, 07,   29.4,  95.59,     85,   17.6,   20.7,   25.5, 146.7, 173.1,  250.7
2019, 12, 02, 08,   29.7,  95.65,     82,   16.8,   19.4,   23.6, 142.1, 162.5,  229.8
2019, 12, 02, 09,   31.3,  95.68,     78,   15.3,   17.6,   21.4, 128.4, 145.6,  205.1
2019, 12, 02, 10,   37.8,  95.64,     54,   11.5,   13.4,   15.9,  77.2,  90.3,  127.5
2019, 12, 02, 11,   41.8,  95.55,     41,    9.4,   11.2,   13.1,  64.5,  75.4,  106.9
2019, 12, 02, 12,   42.4,  95.46,     35,    8.7,   10.4,   12.0,  60.6,  70.3,   97.5
2019, 12, 02, 13,   45.0,  95.36,     29,    7.7,    9.5,   11.0,  56.1,  66.1,   91.4
2019, 12, 02, 14,   44.5,  95.28,     27,    7.1,    8.6,    9.9,  51.7,  61.2,   84.4
2019, 12, 02, 15,   45.9,  95.23,     23,    6.4,    8.0,    9.2,  48.2,  58.1,   79.6
2019, 12, 02, 16,   45.0,  95.23,     24,    6.6,    8.1,    9.4,  47.8,  57.5,   79.5
2019, 12, 02, 17,   40.6,  95.27,     30,    8.0,    9.5,   10.9,  54.1,  62.1,   85.3
2019, 12, 02, 18,   37.6,  95.34,     37,   15.9,   19.7,   23.9,  97.7, 119.0,  173.0
2019, 12, 02, 19,   35.5,  95.44,     53,   13.5,   16.0,   19.2,  86.3, 100.1,  143.8
2019, 12, 02, 20,   34.0,  95.53,     60,   11.9,   13.8,   16.4,  74.6,  86.0,  122.5
2019, 12, 02, 21,   33.1,  95.59,     65,   13.8,   16.0,   19.0,  89.7, 103.3,  145.2
2019, 12, 02, 22,   32.9,  95.59,     68,   15.6,   18.1,   21.5, 107.0, 122.2,  170.8
2019, 12, 02, 23,   32.5,  95.59,     70,   16.4,   18.9,   22.4, 111.4, 126.9,  177.4
2019, 12, 03, 00,   31.5,  95.56,     75,   18.2,   21.0,   24.9, 129.0, 146.9,  206.8
2019, 12, 03, 01,   31.1,  95.54,     77,   19.2,   22.2,   26.3, 139.3, 158.8,  223.3
2019, 12, 03, 02,   30.0,  95.50,     81,   19.5,   22.4,   26.8, 147.7, 168.4,  238.9
2019, 12, 03, 03,   28.8,  95.51,     86,   19.6,   23.3,   27.8, 177.4, 201.9,  281.9
2019, 12, 03, 04,   28.7,  95.53,     87,   17.7,   21.0,   25.4, 158.0, 184.1,  261.7
2019, 12, 03, 05,   28.8,  95.54,     87,   14.3,   17.1,   20.8, 125.7, 149.8,  217.8
2019, 12, 03, 06,   28.8,  95.56,     87,   17.4,   20.7,   25.1, 164.6, 191.2,  271.3
2019, 12, 03, 07,   29.1,  95.60,     88,   15.6,   18.8,   22.9, 163.3, 188.6,  263.7
2019, 12, 03, 08,   30.4,  95.66,     84,   14.3,   17.0,   20.3, 145.9, 164.1,  226.2
2019, 12, 03, 09,   37.2,  95.66,     60,   10.8,   13.0,   15.2,  80.6,  95.6,  133.4
2019, 12, 03, 10,   41.9,  95.61,     42,    7.5,    9.4,   10.8,  54.0,  66.1,   92.3
2019, 12, 03, 11,   44.6,  95.53,     31,    6.9,    8.9,   10.4,  49.4,  62.9,   86.8
2019, 12, 03, 12,   43.1,  95.45,     32,    8.1,   10.5,   12.1,  57.8,  73.5,  102.3
2019, 12, 03, 13,   43.0,  95.36,     29,    6.1,    8.0,    9.1,  44.3,  56.0,   76.5
2019, 12, 03, 14,   43.8,  95.28,     25,    4.7,    6.4,    7.2,  36.0,  46.1,   62.1
2019, 12, 03, 15,   44.1,  95.24,     25,    4.5,    6.1,    6.8,  35.1,  44.8,   60.3
2019, 12, 03, 16,   42.9,  95.25,     27,    4.4,    5.9,    6.7,  32.3,  41.6,   56.3
2019, 12, 03, 17,   40.5,  95.29,     32,    6.1,    7.8,    8.9,  40.1,  49.7,   68.3
2019, 12, 03, 18,   36.3,  95.36,     36,    8.2,   10.3,   12.2,  46.2,  57.4,   81.6
2019, 12, 03, 19,   34.2,  95.43,     33,   10.5,   13.3,   16.1,  59.1,  71.7,  102.3
2019, 12, 03, 20,   33.8,  95.53,     31,    8.7,   10.9,   13.1,  49.3,  58.4,   82.0
2019, 12, 03, 21,   32.3,  95.58,     38,   11.3,   14.0,   17.1,  63.4,  75.5,  108.1
2019, 12, 03, 22,   31.2,  95.57,     41,   11.4,   14.1,   17.1,  64.3,  75.8,  108.6
2019, 12, 03, 23,   30.1,  95.55,     53,   13.1,   15.8,   19.1,  76.8,  89.7,  129.7
2019, 12, 04, 00,   29.0,  95.51,     60,   15.5,   18.7,   22.4,  93.4, 109.0,  156.7
2019, 12, 04, 01,   27.9,  95.48,     65,   16.6,   20.0,   24.1,  99.6, 118.0,  169.9
2019, 12, 04, 02,   27.0,  95.48,     69,   17.7,   21.0,   25.4, 106.6, 126.0,  181.8
2019, 12, 04, 03,   26.7,  95.47,     76,   18.0,   21.3,   25.7, 116.8, 138.4,  199.8
2019, 12, 04, 04,   26.7,  95.48,     88,   12.8,   15.1,   18.7, 104.5, 126.6,  185.7
2019, 12, 04, 05,   27.3,  95.54,     90,   14.2,   17.1,   21.1, 136.2, 158.1,  223.7
2019, 12, 04, 06,   27.8,  95.56,     90,   11.5,   14.0,   17.6, 111.3, 134.3,  195.0
2019, 12, 04, 07,   28.6,  95.61,     90,   14.5,   17.8,   21.9, 153.8, 179.7,  254.3
2019, 12, 04, 08,   33.7,  95.65,     71,   14.3,   17.2,   20.5, 117.3, 136.5,  189.5
2019, 12, 04, 09,   40.1,  95.64,     49,   10.3,   12.7,   14.9,  72.6,  88.7,  122.6
2019, 12, 04, 10,   44.2,  95.59,     33,    6.2,    8.0,    9.1,  45.6,  56.5,   76.0
2019, 12, 04, 11,   45.0,  95.52,     22,    4.0,    5.6,    6.4,  35.0,  42.3,   54.0
2019, 12, 04, 12,   44.2,  95.45,     21,    4.1,    5.6,    6.3,  34.6,  40.6,   51.7
2019, 12, 04, 13,   44.4,  95.36,     19,    4.0,    5.6,    6.2,  33.4,  40.4,   52.1
2019, 12, 04, 14,   44.8,  95.26,     17,    4.9,    6.6,    7.4,  37.4,  46.9,   62.0
2019, 12, 04, 15,   44.4,  95.20,     18,    5.0,    6.7,    7.4,  38.6,  48.2,   63.7
2019, 12, 04, 16,   43.0,  95.18,     18,    5.6,    7.3,    8.2,  40.3,  49.5,   65.7
2019, 12, 04, 17,   41.2,  95.23,     20,    7.2,    9.1,   10.2,  50.0,  58.9,   78.0
2019, 12, 04, 18,   37.4,  95.31,     25,    6.7,    8.5,    9.7,  42.4,  50.3,   68.3
2019, 12, 04, 19,   34.4,  95.39,     31,   10.5,   13.1,   15.7,  60.9,  73.2,  103.4
2019, 12, 04, 20,   33.2,  95.47,     34,   12.1,   14.9,   17.7,  72.1,  84.2,  117.4
2019, 12, 04, 21,   31.2,  95.51,     37,   10.5,   12.8,   15.4,  60.1,  70.2,   98.3
2019, 12, 04, 22,   30.9,  95.51,     37,   10.2,   12.4,   14.9,  56.9,  66.4,   93.8
2019, 12, 04, 23,   29.1,  95.51,     53,   18.3,   21.7,   25.8, 112.4, 129.6,  181.9
2019, 12, 05, 00,   26.9,  95.51,     64,   22.0,   25.6,   30.4, 141.6, 159.2,  222.5
2019, 12, 05, 01,   26.1,  95.48,     64,   20.4,   24.0,   28.7, 129.5, 146.6,  206.9
2019, 12, 05, 02,   25.8,  95.46,     73,   21.8,   25.6,   30.6, 141.3, 163.8,  234.2
2019, 12, 05, 03,   26.3,  95.44,     79,   23.0,   26.7,   31.8, 168.4, 193.3,  273.0
2019, 12, 05, 04,   26.5,  95.43,     86,   22.9,   26.8,   32.1, 197.9, 226.7,  319.1
2019, 12, 05, 05,   26.7,  95.45,     88,   21.8,   26.0,   31.5, 215.3, 246.1,  343.6
2019, 12, 05, 06,   27.0,  95.46,     90,   22.0,   26.4,   32.2, 228.0, 259.8,  361.2
2019, 12, 05, 07,   28.1,  95.50,     88,   27.0,   32.1,   38.6, 264.4, 291.5,  397.2
2019, 12, 05, 08,   33.1,  95.54,     72,   18.3,   21.9,   26.2, 156.0, 178.2,  244.8
2019, 12, 05, 09,   39.7,  95.53,     50,   14.0,   17.4,   20.4, 101.9, 122.6,  170.9
2019, 12, 05, 10,   43.0,  95.51,     35,    8.8,   11.2,   13.0,  64.3,  78.8,  109.1
2019, 12, 05, 11,   45.4,  95.46,     24,    6.4,    8.5,    9.7,  49.9,  60.7,   80.5
2019, 12, 05, 12,   44.7,  95.39,     21,    5.8,    7.8,    8.8,  46.1,  55.9,   73.4
2019, 12, 05, 13,   44.6,  95.30,     19,    5.1,    6.8,    7.7,  41.0,  49.5,   65.0
2019, 12, 05, 14,   44.6,  95.22,     18,    4.1,    5.7,    6.3,  35.8,  43.4,   56.5
2019, 12, 05, 15,   44.8,  95.18,     18,    6.4,    7.8,    9.5,  49.2,  55.3,   74.8
2019, 12, 05, 16,   44.9,  95.17,     18,    5.7,    6.7,    8.3,  43.0,  48.6,   66.1
2019, 12, 05, 17,   44.3,  95.21,     20,    6.1,    7.4,    9.0,  44.9,  50.6,   68.5
2019, 12, 05, 18,   39.1,  95.28,     28,    8.4,    9.8,   12.0,  56.4,  61.6,   84.3
2019, 12, 05, 19,   35.6,  95.39,     34,   11.8,   13.8,   17.1,  73.4,  81.4,  113.8
2019, 12, 05, 20,   34.4,  95.48,     36,   12.4,   14.4,   17.8,  74.9,  83.1,  116.9
2019, 12, 05, 21,   32.6,  95.51,     41,   13.9,   16.3,   20.1,  83.1,  93.1,  132.6
2019, 12, 05, 22,   31.1,  95.54,     45,   14.1,   16.3,   20.1,  83.2,  92.2,  131.0
2019, 12, 05, 23,   30.7,  95.52,     48,   14.2,   16.4,   20.3,  86.3,  94.4,  135.0
2019, 12, 06, 00,   29.7,  95.51,     54,   15.8,   18.2,   22.3,  98.1, 106.8,  152.5
2019, 12, 06, 01,   28.4,  95.51,     66,   20.5,   23.6,   28.7, 128.3, 144.2,  205.9
2019, 12, 06, 02,   28.2,  95.49,     73,   21.4,   24.5,   29.8, 137.7, 156.2,  223.0
2019, 12, 06, 03,   28.0,  95.46,     80,   22.5,   25.9,   31.6, 157.7, 181.7,  261.8
2019, 12, 06, 04,   27.7,  95.48,     86,   19.7,   22.4,   27.6, 164.6, 185.9,  264.7
2019, 12, 06, 05,   28.2,  95.51,     89,   19.7,   22.7,   28.2, 201.1, 219.4,  301.5
2019, 12, 06, 06,   28.6,  95.53,     89,   17.8,   20.6,   25.8, 179.9, 201.5,  280.2
2019, 12, 06, 07,   29.1,  95.58,     88,   20.5,   23.8,   29.4, 221.7, 238.6,  320.5
2019, 12, 06, 08,   32.8,  95.62,     75,   24.0,   27.7,   33.5, 214.4, 236.4,  322.0
2019, 12, 06, 09,   37.3,  95.65,     56,   17.9,   20.7,   25.0, 128.7, 148.1,  207.4
2019, 12, 06, 10,   40.8,  95.63,     45,   13.8,   16.0,   19.5,  95.1, 111.1,  158.6
2019, 12, 06, 11,   44.6,  95.56,     35,   11.9,   14.1,   17.1,  81.7,  97.6,  138.0
2019, 12, 06, 12,   43.7,  95.49,     33,   10.8,   12.8,   15.3,  74.0,  88.5,  124.5
2019, 12, 06, 13,   42.9,  95.40,     33,   10.4,   12.2,   14.7,  70.8,  84.0,  118.3
2019, 12, 06, 14,   43.1,  95.31,     31,    9.2,   10.7,   13.0,  63.2,  74.4,  104.6
2019, 12, 06, 15,   41.7,  95.23,     30,    7.6,    9.2,   10.4,  52.7,  62.1,   86.5
2019, 12, 06, 16,   42.3,  95.22,     31,   10.0,   12.1,   13.8,  69.3,  80.9,  111.5
2019, 12, 06, 17,   41.4,  95.25,     33,    9.1,   10.8,   12.4,  62.4,  72.6,  100.4
2019, 12, 06, 18,   37.9,  95.32,     39,   68.0,   80.2,   92.7, 526.3, 568.5,  744.9
2019, 12, 06, 19,   35.6,  95.41,     44,   13.2,   15.6,   18.2,  84.3,  95.8,  136.1
2019, 12, 06, 20,   34.0,  95.49,     47,   12.1,   14.1,   16.6,  72.9,  83.3,  120.3
2019, 12, 06, 21,   33.3,  95.56,     47,   11.9,   13.7,   16.1,  70.0,  80.0,  116.3
2019, 12, 06, 22,   33.4,  95.59,     48,   18.8,   21.8,   25.5, 123.1, 137.6,  192.4
2019, 12, 06, 23,   32.0,  95.59,     56,   14.8,   17.1,   20.1,  89.5, 102.6,  148.1
2019, 12, 07, 00,   30.5,  95.56,     63,   16.6,   19.1,   22.6, 102.4, 117.3,  167.3
2019, 12, 07, 01,   29.3,  95.52,     71,   20.5,   23.8,   28.1, 132.2, 152.3,  216.9
2019, 12, 07, 02,   28.1,  95.50,     76,   23.0,   26.5,   31.5, 155.2, 177.0,  251.2
2019, 12, 07, 03,   28.0,  95.50,     75,   20.7,   23.8,   28.3, 136.3, 157.1,  225.4
2019, 12, 07, 04,   27.8,  95.50,     80,   22.3,   25.5,   30.1, 158.2, 180.0,  255.9
2019, 12, 07, 05,   27.6,  95.51,     84,   25.1,   28.3,   33.1, 204.5, 225.8,  313.3
2019, 12, 07, 06,   26.9,  95.56,     86,   24.3,   27.7,   32.7, 205.7, 227.0,  315.6
2019, 12, 07, 07,   27.7,  95.58,     83,   23.0,   26.4,   31.7, 183.1, 206.4,  293.1
2019, 12, 07, 08,   33.9,  95.63,     64,   18.8,   21.8,   25.7, 124.4, 144.2,  204.2
2019, 12, 07, 09,   39.7,  95.64,     50,   13.8,   16.3,   19.1,  93.4, 109.4,  155.4
2019, 12, 07, 10,   43.3,  95.61,     32,    9.3,   11.3,   13.1,  62.5,  73.9,  104.6
2019, 12, 07, 11,   42.6,  95.54,     24,    6.9,    8.5,    9.9,  44.7,  53.3,   75.0
2019, 12, 07, 12,   42.1,  95.45,     24,    7.0,    8.6,    9.9,  44.3,  53.0,   74.2
2019, 12, 07, 13,   42.7,  95.36,     19,    6.0,    7.5,    8.6,  38.5,  46.1,   64.4
2019, 12, 07, 14,   42.3,  95.28,     17,    5.5,    6.9,    7.9,  35.2,  42.3,   59.5
2019, 12, 07, 15,   44.4,  95.21,     13,    4.1,    5.6,    6.1,  30.2,  37.3,   52.2
2019, 12, 07, 16,   44.3,  95.22,     14,    4.3,    6.0,    6.6,  31.5,  39.2,   54.9
2019, 12, 07, 17,   42.3,  95.26,     18,    5.2,    6.9,    7.6,  34.2,  42.0,   59.5
2019, 12, 07, 18,   38.1,  95.33,     25,    7.6,    9.7,   11.1,  44.4,  53.9,   77.8
2019, 12, 07, 19,   34.7,  95.42,     30,    9.5,   11.6,   13.5,  52.5,  62.4,   91.0
2019, 12, 07, 20,   33.1,  95.51,     32,   10.5,   12.8,   14.9,  57.6,  67.9,   99.2
2019, 12, 07, 21,   32.3,  95.56,     34,   11.0,   13.4,   15.8,  59.7,  70.5,  103.8
2019, 12, 07, 22,   32.1,  95.57,     34,   10.4,   12.7,   14.9,  56.0,  65.9,   97.2
2019, 12, 07, 23,   29.9,  95.58,     47,   14.2,   17.0,   20.2,  81.0,  93.8,  138.7
2019, 12, 08, 00,   28.2,  95.59,     53,   18.5,   21.9,   25.8, 111.8, 126.7,  182.0
2019, 12, 08, 01,   27.5,  95.55,     55,   18.0,   21.4,   25.4, 107.2, 122.9,  179.2
2019, 12, 08, 02,   27.2,  95.51,     67,   22.3,   26.0,   30.4, 149.4, 166.8,  234.1
2019, 12, 08, 03,   26.7,  95.49,     84,   24.3,   28.4,   33.5, 201.2, 223.5,  310.3
2019, 12, 08, 04,   27.4,  95.49,     89,   23.0,   27.4,   33.0, 220.9, 249.1,  346.9
2019, 12, 08, 05,   27.9,  95.50,     88,   17.8,   21.4,   25.9, 165.8, 193.9,  277.2
2019, 12, 08, 06,   28.0,  95.54,     90,   18.6,   22.2,   26.6, 203.4, 225.1,  308.7
2019, 12, 08, 07,   29.1,  95.60,     86,   18.9,   22.4,   26.7, 201.1, 222.2,  305.0
2019, 12, 08, 08,   33.0,  95.66,     71,   19.6,   23.3,   27.2, 162.8, 185.4,  257.3
2019, 12, 08, 09,   36.8,  95.68,     55,   18.2,   21.9,   25.4, 138.1, 160.5,  222.8
2019, 12, 08, 10,   42.1,  95.65,     40,   16.0,   19.8,   23.1, 119.4, 141.9,  199.2
2019, 12, 08, 11,   44.5,  95.59,     33,   13.6,   17.2,   19.9, 101.2, 123.1,  171.7
2019, 12, 08, 12,   43.7,  95.52,     32,   12.1,   15.2,   17.4,  88.9, 108.3,  151.8
2019, 12, 08, 13,   43.5,  95.43,     28,    9.9,   12.6,   14.3,  71.9,  88.4,  123.4
2019, 12, 08, 14,   43.2,  95.32,     25,    7.2,    9.2,   10.3,  51.1,  62.7,   87.9
2019, 12, 08, 15,   44.0,  95.27,     22,    6.1,    7.9,    8.8,  45.0,  55.2,   77.5
2019, 12, 08, 16,   43.1,  95.26,     22,    5.8,    7.5,    8.3,  41.2,  50.8,   71.4